Location: 22
(39.7117°N, 89.5929°W)
Time: 04:59:03
(UTC-05:00)

Vanguard 1 Rocket - Pass Details

Date: 09 February 2023
Orbit: 652 x 4223 km, 34.3° (Epoch: 26 March)

Event Time Altitude Azimuth Distance (km) Brightness Sun altitude
Rises 09:12:01 0° 209° (SSW) 3,332 10.5 21.3°
Reaches altitude 10° 09:14:28 10° 196° (SSW) 2,638 10.2 21.7°
Maximum altitude 09:19:37 26° 140° (SE) 2,250 12.3 22.4°
Drops below altitude 10° 09:27:39 10° 89° (E) 4,275 11.6 23.5°
Sets 09:32:59 0° 80° (E) 5,946 12.0 24.2°
